Location: Warszawa
(52.2500°N, 21.0000°E)
Time: 20:42:12
(UTC+02:00)

AO-91 - Pass Details

Date: 27 April 2024
Orbit: 441 x 737 km, 97.6° (Epoch: 20 May)

Event Time Altitude Azimuth Distance (km) Brightness Sun altitude
Rises 21:19:22 0° 29° (NNE) 2,450 ? -11.5°
Reaches altitude 10° 21:22:04 10° 54° (NE) 1,588 ? -11.8°
Maximum altitude 21:24:06 15° 92° (E) 1,324 ? -12.0°
Enters shadow 21:24:24 15° 98° (E) 1,333 ? -12.1°
